This demonstration page uses our WeatherBlox Daily Observations layout. Learn more.

Left ArrowRight Arrow

Hourly Observations for May 7, 2021

Temp ( °F °C ) Dew Point ( °F °C ) Humidity (%) Winds ( mph kmh ) Pressure ( in mb ) Visibility ( mi km ) Precip ( " mm )
12:15 am 00:15 Clear 53 11.4 37 2.7 55 55 SSW 10 17 30.15 1021 10 16 N/A
12:35 am 00:35 Clear 53 11.5 37 2.5 54 54 SSW 10 17 30.15 1021 10 16 N/A
12:55 am 00:55 Clear 51 10.8 37 2.7 58 58 SW 8 13 30.15 1021 10 16 N/A
1:15 am 01:15 Clear 52 11 37 2.7 57 57 SW 9 15 30.14 1021 10 16 N/A
1:35 am 01:35 Clear 51 10.7 37 2.7 58 58 SW 8 13 30.14 1021 10 16 N/A
1:55 am 01:55 Clear 52 11 37 3 58 58 SW 8 13 30.13 1020 10 16 N/A
2:15 am 02:15 Clear 51 10.6 37 3 60 60 SW 9 15 30.14 1021 10 16 N/A
2:35 am 02:35 Clear 50 9.9 38 3.1 63 63 SW 7 11 30.13 1020 10 16 N/A
2:55 am 02:55 Clear 49 9.6 38 3.1 64 64 SW 8 13 30.14 1021 10 16 N/A
3:15 am 03:15 Clear 49 9.6 37 3 64 64 SW 6 9 30.14 1021 10 16 N/A
3:35 am 03:35 Clear 50 9.8 37 3 63 63 SW 5 7 30.13 1020 10 16 N/A
3:55 am 03:55 Clear 51 10.5 37 3 60 60 SW 9 15 30.13 1020 10 16 N/A
4:15 am 04:15 Clear 51 10.5 37 3 60 60 SW 10 17 30.13 1020 10 16 N/A
4:35 am 04:35 Clear 51 10.5 37 2.6 58 58 SW 9 15 30.13 1020 10 16 N/A
4:55 am 04:55 Clear 51 10.5 37 2.5 58 58 SW 9 15 30.13 1020 10 16 N/A
5:15 am 05:15 Clear 51 10.4 36 2.4 58 58 SW 8 13 30.13 1020 10 16 N/A
5:35 am 05:35 Clear 50 9.8 36 2.3 60 60 SW 7 11 30.13 1020 10 16 N/A
5:55 am 05:55 Clear 49 9.5 37 2.5 62 62 SW 3 6 30.14 1021 10 16 N/A
6:15 am 06:15 Clear 49 9.2 36 2.3 62 62 N N/A 30.14 1021 10 16 N/A
6:35 am 06:35 Sunny 49 9.3 36 2.2 61 61 N N/A 30.14 1021 10 16 N/A
6:55 am 06:55 Sunny 49 9.5 36 2.3 61 61 N N/A 30.14 1021 10 16 N/A
7:15 am 07:15 Sunny 48 8.8 37 3 67 67 N N/A 30.14 1021 10 16 N/A
7:35 am 07:35 Sunny 51 10.4 37 2.8 60 60 N N/A 30.13 1020 10 16 N/A
7:55 am 07:55 Partly Cloudy 54 12 38 3.3 56 56 SE 6 9 30.12 1020 10 16 N/A
8:15 am 08:15 Partly Cloudy 55 12.7 38 3.3 53 53 SSE 7 11 30.11 1020 10 16 N/A
8:35 am 08:35 Partly Cloudy 56 13.6 37 2.5 47 47 S 8 13 30.10 1019 10 16 N/A
8:55 am 08:55 Partly Cloudy 58 14.5 37 2.5 45 45 SSW 10 17 30.08 1019 10 16 N/A
9:15 am 09:15 Mostly Cloudy 59 14.9 37 2.9 45 45 SSW 13 20 30.07 1018 10 16 N/A
9:35 am 09:35 Cloudy 60 15.6 37 2.7 42 42 S 15 24 30.06 1018 10 16 N/A
9:55 am 09:55 Mostly Cloudy 62 16.5 37 2.7 40 40 SSE 13 20 30.05 1017 10 16 N/A
10:15 am 10:15 Partly Cloudy 64 17.7 37 3 38 38 SSE 10 17 30.03 1017 10 16 N/A
10:35 am 10:35 Sunny 65 18.6 38 3.4 37 37 SSE 16 26 30.01 1016 10 16 N/A
10:55 am 10:55 Sunny 67 19.2 38 3.4 35 35 S 16 26 30.00 1016 10 16 N/A
11:15 am 11:15 Sunny 67 19.3 38 3.5 35 35 SSE 16 26 30.00 1016 10 16 N/A
11:35 am 11:35 Sunny 68 20 40 4.4 36 36 SSE 21 33 29.99 1015 10 16 N/A
11:55 am 11:55 Sunny 68 20 40 4.3 36 36 SSE 12 19 29.99 1015 10 16 N/A
12:15 pm 12:15 Sunny 68 20.2 41 4.8 37 37 SSE 15 24 29.98 1015 10 16 N/A
12:35 pm 12:35 Sunny 69 20.3 41 4.9 37 37 S 17 28 29.96 1015 10 16 N/A
12:55 pm 12:55 Sunny 69 20.8 43 5.9 38 38 SSE 14 22 29.94 1014 10 16 N/A
1:15 pm 13:15 Sunny 69 20.8 42 5.3 36 36 SE 14 22 29.93 1014 10 16 N/A
1:35 pm 13:35 Sunny 70 21.3 43 5.9 37 37 SSE 16 26 29.92 1013 10 16 N/A
1:55 pm 13:55 Sunny 71 21.9 43 6 36 36 SSE 15 24 29.90 1013 10 16 N/A
2:15 pm 14:15 Sunny 73 22.5 44 6.7 36 36 SE 18 30 29.88 1012 10 16 N/A
2:35 pm 14:35 Sunny 73 22.5 44 6.4 35 35 SSE 13 20 29.87 1011 10 16 N/A
2:55 pm 14:55 Sunny 73 22.5 44 6.8 36 36 SE 15 24 29.87 1011 10 16 N/A
3:15 pm 15:15 Sunny 73 22.5 44 6.6 36 36 SE 21 33 29.87 1011 10 16 N/A
3:35 pm 15:35 Sunny 73 22.5 44 6.6 36 36 SE 15 24 29.86 1011 10 16 N/A
3:55 pm 15:55 Sunny 74 23.1 44 6.7 35 35 SE 17 28 29.84 1011 10 16 N/A
4:15 pm 16:15 Sunny 73 22.7 44 6.7 36 36 ESE 14 22 29.84 1010 10 16 N/A
4:35 pm 16:35 Sunny 73 23 45 7.1 36 36 SE 16 26 29.82 1010 10 16 N/A
4:55 pm 16:55 Sunny 74 23.1 45 7.3 36 36 ESE 17 28 29.82 1010 10 16 N/A
5:15 pm 17:15 Sunny 73 22.9 46 7.6 38 38 SE 16 26 29.80 1009 10 16 N/A
5:35 pm 17:35 Sunny 74 23.2 46 7.5 37 37 ESE 18 30 29.79 1009 10 16 N/A
5:55 pm 17:55 Sunny 73 22.9 45 7.2 36 36 SE 15 24 29.79 1009 10 16 N/A
6:15 pm 18:15 Sunny 73 22.5 45 7.2 37 37 ESE 20 31 29.80 1009 10 16 N/A
6:35 pm 18:35 Sunny 72 22.3 46 7.6 39 39 ESE 20 31 29.80 1009 10 16 N/A
7:15 pm 19:15 Sunny 70 21.3 46 7.5 41 41 E 17 28 29.80 1009 10 16 N/A
7:35 pm 19:35 Sunny 69 20.8 46 7.6 43 43 E 20 31 29.79 1009 10 16 N/A
7:55 pm 19:55 Sunny 68 20.2 45 7.3 43 43 E 18 30 29.80 1009 10 16 N/A
8:15 pm 20:15 Sunny 67 19.4 45 7.1 45 45 E 17 28 29.81 1010 10 16 N/A
8:35 pm 20:35 Sunny 65 18.6 45 7.2 48 48 E 16 26 29.82 1010 10 16 N/A
8:55 pm 20:55 Clear 64 17.7 44 6.5 48 48 E 21 33 29.83 1010 10 16 N/A
9:15 pm 21:15 Clear 62 16.8 43 6 49 49 E 21 33 29.84 1011 10 16 N/A
9:35 pm 21:35 Clear 61 16 43 6 52 52 E 20 31 29.85 1011 10 16 N/A
9:55 pm 21:55 Clear 60 15.4 43 6.1 54 54 E 20 31 29.86 1011 10 16 N/A
10:15 pm 22:15 Clear 59 14.8 44 6.5 58 58 E 18 30 29.86 1011 10 16 N/A
10:35 pm 22:35 Clear 58 14.5 45 7 61 61 ESE 17 28 29.86 1011 10 16 N/A
10:55 pm 22:55 Clear 57 14.1 46 7.5 65 65 ESE 18 30 29.87 1011 10 16 N/A
11:15 pm 23:15 Clear 57 13.9 46 7.8 67 67 ESE 18 30 29.87 1011 10 16 N/A
11:35 pm 23:35 Clear 56 13.5 46 7.9 69 69 ESE 17 28 29.87 1012 10 16 N/A
11:55 pm 23:55 Clear 56 13.4 46 8 70 70 ESE 17 28 29.86 1011 10 16 N/A

Powered by AerisWeather